Location: Eferding
(48.3167°N, 14.0167°E)
Time: 10:54:20
(UTC+00:00)

ATLAS 5 CENTAUR R/B - Pass Details

Date: 12 November 2019
Orbit: 563 x 1096 km, 63.3° (Epoch: 09 December)

Event Time Altitude Azimuth Distance (km) Brightness Sun altitude
Rises 18:30:23 0° 312° (NW) 3,367 6.1 -30.1°
Reaches altitude 10° 18:32:56 10° 303° (WNW) 2,514 5.4 -30.5°
Maximum altitude 18:38:07 33° 242° (WSW) 1,545 3.9 -31.4°
Enters shadow 18:42:09 17° 190° (S) 2,272 4.4 -32.0°
